map of DUB home
DUB - Airport
Location
City:  Dublin, County Dublin, Leinster, Ireland
Name:Dublin International Airport
ICAO:EIDW
IATA:DUB

Details
Type:Airport (Aerodrome, Airfield)
Use:International (customs port of entry)
Latitude:5325'17"N (53.421389)
Longitude:616'12"W (-6.269999)
Elevation:242 ft (74 m)
Variation:2.97W (WMM2015 magnetic declination)
0.16 annual change
Runways:3
Longest:8652 × 148 ft (2637 × 45 m), paved

Time
Time Zone:UTC+0 (DST+1)
Local Time:

Weather
METAR:EIDW 221930Z 26015KT 240V310 9999 FEW024 BKN032 11/05 Q1008 NOSIG
TAF:EIDW 221700Z 2218/2318 26018KT 9999 FEW020 SCT035
TEMPO 2218/2221 27020G30KT
BECMG 2221/2224 26013KT
BECMG 2310/2312 22014KT
TEMPO 2314/2318 24018G28KT -RA BKN014

Related Locations
Nearby:
Farthest:SZS: 11917 mi / 19178 km
Ryan's Creek, Stewart Island, STL, NZ

Find:

   beyond  
but within

Other Information
Maps:
NOTAMs:
Links:
Sources:

  
flag of Ireland
flag of Leinster
flag of Dublin
  

Sectional Chart

Flight Planning
at skyvector.com

Satellite Image

Google Maps Satellite view

 

Copyright © 2004-2018 Karl L. Swartz. All rights reserved.
The Great Circle Mapper name and logo are trademarks of the Great Circle Mapper.
All other trademarks mentioned herein belong to their respective owners.
Please see credits for attibutions and further copyright information.

  Follow gcmap on Facebook Follow gcmap on Twitter Follow gcmap on Google+ GCmap on LinkedIn

hCard Microformat

Geo Microformat